Location: Eastchurch
(51.4000°N, 0.8667°E)
Time: 23:37:46
(UTC+00:00)

Cosmos 2056 Rocket - Pass Details

Date: 19 January 2026
Orbit: 738 x 795 km, 74.0° (Epoch: 17 February)

Event Time Altitude Azimuth Distance (km) Brightness Sun altitude
Rises 17:07:22 0° 216° (SW) 3,180 7.9 -6.8°
Reaches altitude 10° 17:09:46 10° 220° (SW) 2,254 7.1 -7.2°
Maximum altitude 17:14:47 57° 299° (WNW) 873 4.1 -7.9°
Drops below altitude 10° 17:19:49 10° 19° (NNE) 2,259 5.6 -8.6°
Enters shadow 17:22:02 - 23° (NNE) 3,114 6.2 -8.9°
